This demonstration page uses our WeatherBlox Daily Observations layout. Learn more.

Left ArrowRight Arrow

36.17497, -115.13722

Hourly Observations for September 17, 2017

Temp ( °F °C ) Dew Point ( °F °C ) Humidity (%) Winds ( mph kmh ) Pressure ( in mb ) Visibility ( mi km ) Precip ( " mm )
12:53 am 00:53 Clear 75 23.9 42 5.6 31 31 W 3 6 29.84 1011 10 16 0.00 0.00
1:53 am 01:53 Clear 72 22.2 42 5.6 34 34 Calm 29.84 1011 10 16 0.00 0.00
2:53 am 02:53 Clear 71 21.7 44 6.7 38 38 NNW 5 7 29.84 1011 10 16 0.00 0.00
3:53 am 03:53 Clear 71 21.7 43 6.1 36 36 NW 3 6 29.84 1011 10 16 0.00 0.00
4:53 am 04:53 Clear 69 20.6 43 6.1 39 39 NNW 6 9 29.85 1011 10 16 0.00 0.00
5:53 am 05:53 Clear 68 20 43 6.1 40 40 Calm 29.86 1011 10 16 0.00 0.00
6:53 am 06:53 Sunny 70 21.1 40 4.4 34 34 Calm 29.88 1012 10 16 0.00 0.00
7:53 am 07:53 Sunny 73 22.8 43 6.1 34 34 WNW 6 9 29.89 1012 10 16 0.00 0.00
8:53 am 08:53 Sunny 77 25 41 5 28 28 Calm 29.90 1013 10 16 0.00 0.00
9:53 am 09:53 Sunny 80 26.7 39 3.9 23 23 Calm 29.91 1013 10 16 0.00 0.00
10:53 am 10:53 Sunny 83 28.3 36 2.2 19 19 SE 5 7 29.91 1013 10 16 0.00 0.00
11:53 am 11:53 Sunny 86 30 37 2.8 18 18 SE 9 15 29.90 1013 10 16 0.00 0.00
12:53 pm 12:53 Sunny 88 31.1 38 3.3 17 17 S 12 19 29.88 1012 10 16 0.00 0.00
1:53 pm 13:53 Sunny 88 31.1 38 3.3 17 17 VRB 5 7 29.86 1011 10 16 0.00 0.00
2:53 pm 14:53 Sunny 89 31.7 37 2.8 16 16 Calm 29.84 1011 10 16 0.00 0.00
3:53 pm 15:53 Sunny 90 32.2 38 3.3 16 16 S 8 13 29.83 1010 10 16 0.00 0.00
4:53 pm 16:53 Sunny 90 32.2 40 4.4 17 17 S 14 22 29.82 1010 10 16 0.00 0.00
5:53 pm 17:53 Sunny 89 31.7 41 5 19 19 ESE 8 13 29.81 1009 10 16 0.00 0.00
6:53 pm 18:53 Clear 87 30.6 41 5 20 20 SE 9 15 29.82 1010 10 16 0.00 0.00
7:53 pm 19:53 Clear 86 30 39 3.9 19 19 SSE 12 19 29.84 1010 10 16 0.00 0.00
8:53 pm 20:53 Clear 84 28.9 36 2.2 18 18 SSE 7 11 29.85 1011 10 16 0.00 0.00
9:53 pm 21:53 Clear 83 28.3 38 3.3 20 20 SSE 5 7 29.86 1011 10 16 0.00 0.00
10:53 pm 22:53 Clear 81 27.2 38 3.3 21 21 E 3 6 29.87 1011 10 16 0.00 0.00
11:53 pm 23:53 Clear 79 26.1 39 3.9 24 24 S 5 7 29.86 1011 10 16 0.00 0.00

Powered by AerisWeather